Location: Parkway Village
(35.0643°N, 89.9062°W)
Time: 14:40:34
(UTC+00:00)

BlueWalker 3 - Pass Details

Date: 16 August 2024
Orbit: 475 x 487 km, 53.2° (Epoch: 17 September)

Event Time Altitude Azimuth Distance (km) Brightness Sun altitude
Rises 10:38:29 0° 330° (NNW) 2,569 5.5 -8.9°
Reaches altitude 10° 10:41:57 10° 3° (N) 1,685 5.0 -8.3°
Maximum altitude 10:43:26 12° 26° (NNE) 1,568 5.2 -8.0°
Drops below altitude 10° 10:44:56 10° 49° (NE) 1,683 6.0 -7.7°
Sets 10:48:22 0° 82° (E) 2,561 7.4 -7.1°
